{"data":{"norad_id":53247,"epoch":"2026-09-19T23:08:02.698368Z","epoch_age_seconds":121669,"freshness":"FRESH","line1":"1 53247U 22086F   26262.96392012  .00000769  00000+0  32960-4 0  9994","line2":"2 53247  53.1629  38.4247 0001028  80.8220 279.2899 15.35398379230754","mean_motion":15.35398379,"eccentricity":0.0001028,"inclination_deg":53.1629,"raan_deg":38.4247,"arg_perigee_deg":80.822,"mean_anomaly_deg":279.2899,"bstar":3.296e-5,"rev_number":23075,"period_min":93.786734419888,"perigee_km":459.03452197619,"apogee_km":460.44038896424,"semimajor_km":6837.8744554702,"source":"CELESTRAK","updated_at":"2026-09-20T09:00:40.198398Z"}}